Time,TemperatureF,DewpointF,PressureIn,WindDirection,WindDirectionDegrees,WindSpeedMPH,WindSpeedGustMPH,Humidity,HourlyPrecipIn,Conditions,Clouds,dailyrainin,SoftwareType,DateUTC
2013-02-19 00:07:00,23.1,3.0,30.15,WSW,246,0.0,4.0,41,0.00,,,0.00,weatherlink.com 1.10,2013-02-19 05:07:00,
2013-02-19 00:22:00,23.0,2.0,30.15,SSW,209,0.0,6.0,41,0.00,,,0.00,weatherlink.com 1.10,2013-02-19 05:22:00,
2013-02-19 00:37:00,23.0,2.0,30.15,SSW,200,2.0,6.0,41,0.00,,,0.00,weatherlink.com 1.10,2013-02-19 05:37:00,
2013-02-19 00:52:00,23.2,3.0,30.15,SSW,211,0.0,4.0,41,0.00,,,0.00,weatherlink.com 1.10,2013-02-19 05:52:00,
2013-02-19 01:07:00,23.3,2.0,30.15,West,260,1.0,5.0,40,0.00,,,0.00,weatherlink.com 1.10,2013-02-19 06:07:00,
2013-02-19 01:22:00,23.5,2.0,30.15,SW,222,0.0,4.0,40,0.00,,,0.00,weatherlink.com 1.10,2013-02-19 06:22:00,
2013-02-19 01:37:00,23.5,2.0,30.15,East,91,1.0,7.0,40,0.00,,,0.00,weatherlink.com 1.10,2013-02-19 06:37:00,
2013-02-19 01:52:00,23.7,3.0,30.16,WSW,245,1.0,5.0,41,0.00,,,0.00,weatherlink.com 1.10,2013-02-19 06:52:00,
2013-02-19 02:07:00,24.2,4.0,30.16,SSW,207,0.0,7.0,41,0.00,,,0.00,weatherlink.com 1.10,2013-02-19 07:07:00,
2013-02-19 02:22:00,24.4,4.0,30.15,WSW,238,0.0,6.0,41,0.00,,,0.00,weatherlink.com 1.10,2013-02-19 07:22:00,
2013-02-19 02:37:00,24.3,4.0,30.15,SW,226,1.0,5.0,42,0.00,,,0.00,weatherlink.com 1.10,2013-02-19 07:37:00,
2013-02-19 02:52:00,24.2,4.0,30.14,WSW,238,1.0,4.0,42,0.00,,,0.00,weatherlink.com 1.10,2013-02-19 07:52:00,
2013-02-19 03:07:00,23.7,4.0,30.14,SSE,165,0.0,3.0,43,0.00,,,0.00,weatherlink.com 1.10,2013-02-19 08:07:00,
2013-02-19 03:22:00,23.2,5.0,30.14,South,186,0.0,1.0,45,0.00,,,0.00,weatherlink.com 1.10,2013-02-19 08:22:00,
2013-02-19 03:37:00,23.1,5.0,30.13,West,271,0.0,1.0,46,0.00,,,0.00,weatherlink.com 1.10,2013-02-19 08:37:00,
2013-02-19 03:52:00,24.0,6.0,30.13,SW,214,1.0,2.0,46,0.00,,,0.00,weatherlink.com 1.10,2013-02-19 08:52:00,
2013-02-19 04:07:00,24.2,6.0,30.12,ESE,110,0.0,1.0,46,0.00,,,0.00,weatherlink.com 1.10,2013-02-19 09:07:00,
2013-02-19 04:23:00,23.8,6.0,30.12,WSW,248,1.0,2.0,47,0.00,,,0.00,weatherlink.com 1.10,2013-02-19 09:23:00,
2013-02-19 04:37:00,24.6,6.0,30.12,SSW,213,0.0,2.0,45,0.00,,,0.00,weatherlink.com 1.10,2013-02-19 09:37:00,
2013-02-19 04:53:00,24.9,7.0,30.12,SSW,213,0.0,1.0,46,0.00,,,0.00,weatherlink.com 1.10,2013-02-19 09:53:00,
2013-02-19 05:08:00,25.3,8.0,30.12,SW,229,0.0,1.0,47,0.00,,,0.00,weatherlink.com 1.10,2013-02-19 10:08:00,
2013-02-19 05:23:00,25.6,8.0,30.12,West,264,0.0,0.0,48,0.00,,,0.00,weatherlink.com 1.10,2013-02-19 10:23:00,
2013-02-19 05:38:00,25.8,9.0,30.12,WSW,248,2.0,2.0,49,0.00,,,0.00,weatherlink.com 1.10,2013-02-19 10:38:00,
2013-02-19 05:53:00,26.0,9.0,30.12,SSW,213,0.0,1.0,49,0.00,,,0.00,weatherlink.com 1.10,2013-02-19 10:53:00,
2013-02-19 06:08:00,26.3,9.0,30.12,WNW,291,0.0,2.0,48,0.00,,,0.00,weatherlink.com 1.10,2013-02-19 11:08:00,
2013-02-19 06:23:00,26.5,9.0,30.11,SSW,207,0.0,2.0,48,0.00,,,0.00,weatherlink.com 1.10,2013-02-19 11:23:00,
2013-02-19 06:38:00,26.7,9.0,30.11,SSW,198,0.0,3.0,48,0.00,,,0.00,weatherlink.com 1.10,2013-02-19 11:38:00,
2013-02-19 06:53:00,26.7,9.0,30.11,SW,229,0.0,2.0,47,0.00,,,0.00,weatherlink.com 1.10,2013-02-19 11:53:00,
2013-02-19 07:08:00,26.4,9.0,30.11,SW,219,1.0,2.0,47,0.00,,,0.00,weatherlink.com 1.10,2013-02-19 12:08:00,
2013-02-19 07:23:00,26.1,10.0,30.10,WSW,250,0.0,1.0,50,0.00,,,0.00,weatherlink.com 1.10,2013-02-19 12:23:00,
2013-02-19 07:38:00,26.6,9.0,30.09,WNW,300,0.0,2.0,48,0.00,,,0.00,weatherlink.com 1.10,2013-02-19 12:38:00,
2013-02-19 07:53:00,27.8,10.0,30.09,SW,230,0.0,2.0,47,0.00,,,0.00,weatherlink.com 1.10,2013-02-19 12:53:00,
2013-02-19 08:08:00,29.6,11.0,30.09,SW,224,0.0,1.0,47,0.00,,,0.00,weatherlink.com 1.10,2013-02-19 13:08:00,
2013-02-19 08:23:00,31.8,13.0,30.09,WNW,284,0.0,1.0,46,0.00,,,0.00,weatherlink.com 1.10,2013-02-19 13:23:00,
2013-02-19 08:38:00,33.1,14.0,30.09,West,278,0.0,2.0,45,0.00,,,0.00,weatherlink.com 1.10,2013-02-19 13:38:00,
2013-02-19 08:53:00,34.4,15.0,30.09,SSE,156,0.0,4.0,46,0.00,,,0.00,weatherlink.com 1.10,2013-02-19 13:53:00,
2013-02-19 09:08:00,36.1,16.0,30.08,East,99,0.0,2.0,45,0.00,,,0.00,weatherlink.com 1.10,2013-02-19 14:08:00,
2013-02-19 09:23:00,35.8,18.0,30.07,SW,233,3.0,6.0,48,0.00,,,0.00,weatherlink.com 1.10,2013-02-19 14:23:00,
2013-02-19 09:38:00,37.5,20.0,30.07,WNW,283,0.0,7.0,49,0.00,,,0.00,weatherlink.com 1.10,2013-02-19 14:38:00,
2013-02-19 09:53:00,38.2,21.0,30.06,ESE,122,2.0,4.0,50,0.00,,,0.00,weatherlink.com 1.10,2013-02-19 14:53:00,
2013-02-19 10:08:00,39.1,22.0,30.05,ESE,105,0.0,6.0,51,0.00,,,0.00,weatherlink.com 1.10,2013-02-19 15:08:00,
2013-02-19 10:23:00,40.7,23.0,30.05,SSE,161,1.0,4.0,50,0.00,,,0.00,weatherlink.com 1.10,2013-02-19 15:23:00,
2013-02-19 10:38:00,42.1,25.0,30.04,South,172,1.0,4.0,50,0.00,,,0.00,weatherlink.com 1.10,2013-02-19 15:38:00,
2013-02-19 10:54:00,42.7,26.0,30.04,SW,219,1.0,5.0,51,0.00,,,0.00,weatherlink.com 1.10,2013-02-19 15:54:00,
2013-02-19 11:09:00,43.4,26.0,30.03,SSE,165,2.0,7.0,51,0.00,,,0.00,weatherlink.com 1.10,2013-02-19 16:09:00,
2013-02-19 11:24:00,43.9,26.0,30.03,SSW,213,2.0,6.0,50,0.00,,,0.00,weatherlink.com 1.10,2013-02-19 16:24:00,
2013-02-19 11:39:00,44.4,27.0,30.01,West,267,0.0,5.0,50,0.00,,,0.00,weatherlink.com 1.10,2013-02-19 16:39:00,
2013-02-19 11:54:00,45.3,27.0,30.00,NNE,19,1.0,4.0,49,0.00,,,0.00,weatherlink.com 1.10,2013-02-19 16:54:00,
2013-02-19 12:09:00,46.0,28.0,29.98,West,264,0.0,4.0,49,0.00,,,0.00,weatherlink.com 1.10,2013-02-19 17:09:00,
2013-02-19 12:24:00,46.6,29.0,29.97,WSW,242,0.0,5.0,50,0.00,,,0.00,weatherlink.com 1.10,2013-02-19 17:24:00,
2013-02-19 12:39:00,47.0,29.0,29.96,South,173,1.0,7.0,50,0.00,,,0.00,weatherlink.com 1.10,2013-02-19 17:39:00,
2013-02-19 12:54:00,48.0,30.0,29.94,West,277,0.0,7.0,50,0.00,,,0.00,weatherlink.com 1.10,2013-02-19 17:54:00,
2013-02-19 13:09:00,48.0,30.0,29.94,SE,145,3.0,5.0,50,0.00,,,0.00,weatherlink.com 1.10,2013-02-19 18:09:00,
2013-02-19 13:24:00,47.6,31.0,29.93,SSW,210,0.0,7.0,52,0.00,,,0.00,weatherlink.com 1.10,2013-02-19 18:24:00,
2013-02-19 13:39:00,47.7,31.0,29.93,SSW,209,1.0,5.0,53,0.00,,,0.00,weatherlink.com 1.10,2013-02-19 18:39:00,
2013-02-19 13:54:00,47.9,31.0,29.91,SSE,154,0.0,3.0,53,0.00,,,0.00,weatherlink.com 1.10,2013-02-19 18:54:00,
2013-02-19 14:09:00,48.3,31.0,29.90,ESE,106,0.0,8.0,51,0.00,,,0.00,weatherlink.com 1.10,2013-02-19 19:09:00,
2013-02-19 14:24:00,48.1,31.0,29.90,ENE,70,2.0,7.0,51,0.00,,,0.00,weatherlink.com 1.10,2013-02-19 19:24:00,
2013-02-19 14:39:00,47.4,31.0,29.88,WSW,244,1.0,7.0,53,0.00,,,0.00,weatherlink.com 1.10,2013-02-19 19:39:00,
2013-02-19 14:54:00,47.0,31.0,29.88,South,188,1.0,6.0,55,0.00,,,0.00,weatherlink.com 1.10,2013-02-19 19:54:00,
2013-02-19 15:09:00,46.8,32.0,29.87,WSW,256,2.0,4.0,56,0.00,,,0.00,weatherlink.com 1.10,2013-02-19 20:09:00,
2013-02-19 15:24:00,46.6,32.0,29.86,ESE,119,3.0,8.0,57,0.00,,,0.00,weatherlink.com 1.10,2013-02-19 20:24:00,
2013-02-19 15:39:00,46.7,32.0,29.85,SSE,159,1.0,7.0,58,0.00,,,0.00,weatherlink.com 1.10,2013-02-19 20:39:00,
2013-02-19 15:54:00,46.6,34.0,29.84,SE,124,4.0,9.0,61,0.00,,,0.00,weatherlink.com 1.10,2013-02-19 20:54:00,
2013-02-19 16:09:00,46.7,35.0,29.83,SSE,158,2.0,4.0,64,0.00,,,0.00,weatherlink.com 1.10,2013-02-19 21:09:00,
2013-02-19 16:24:00,46.0,36.0,29.82,West,268,2.0,5.0,69,0.00,,,0.00,weatherlink.com 1.10,2013-02-19 21:24:00,
2013-02-19 16:40:00,44.9,38.0,29.83,SSW,211,0.0,7.0,76,0.00,,,0.00,weatherlink.com 1.10,2013-02-19 21:40:00,
2013-02-19 16:55:00,43.9,38.0,29.82,ENE,61,0.0,2.0,81,0.01,,,0.01,weatherlink.com 1.10,2013-02-19 21:55:00,
2013-02-19 17:10:00,43.5,39.0,29.80,ESE,116,0.0,4.0,84,0.01,,,0.01,weatherlink.com 1.10,2013-02-19 22:10:00,
2013-02-19 17:25:00,43.3,39.0,29.80,ESE,106,0.0,1.0,85,0.01,,,0.01,weatherlink.com 1.10,2013-02-19 22:25:00,
2013-02-19 17:40:00,42.9,39.0,29.78,East,82,1.0,2.0,86,0.01,,,0.01,weatherlink.com 1.10,2013-02-19 22:40:00,
2013-02-19 17:55:00,42.8,39.0,29.77,East,93,1.0,2.0,87,0.00,,,0.01,weatherlink.com 1.10,2013-02-19 22:55:00,
2013-02-19 18:10:00,42.8,40.0,29.76,ESE,105,0.0,2.0,88,0.01,,,0.02,weatherlink.com 1.10,2013-02-19 23:10:00,
2013-02-19 18:25:00,42.6,40.0,29.76,West,273,2.0,2.0,89,0.02,,,0.03,weatherlink.com 1.10,2013-02-19 23:25:00,
2013-02-19 18:40:00,42.0,39.0,29.75,West,276,0.0,1.0,90,0.03,,,0.04,weatherlink.com 1.10,2013-02-19 23:40:00,
2013-02-19 18:55:00,41.7,39.0,29.73,West,277,0.0,1.0,91,0.06,,,0.07,weatherlink.com 1.10,2013-02-19 23:55:00,
2013-02-19 19:10:00,41.9,40.0,29.73,East,95,0.0,2.0,92,0.07,,,0.09,weatherlink.com 1.10,2013-02-20 00:10:00,
2013-02-19 19:25:00,41.9,40.0,29.70,ESE,102,0.0,3.0,93,0.09,,,0.12,weatherlink.com 1.10,2013-02-20 00:25:00,
2013-02-19 19:40:00,42.0,40.0,29.70,SE,137,0.0,5.0,93,0.11,,,0.15,weatherlink.com 1.10,2013-02-20 00:40:00,
2013-02-19 19:55:00,42.2,41.0,29.67,ESE,102,0.0,7.0,94,0.12,,,0.19,weatherlink.com 1.10,2013-02-20 00:55:00,
2013-02-19 20:10:00,42.7,41.0,29.66,ESE,118,3.0,8.0,94,0.12,,,0.21,weatherlink.com 1.10,2013-02-20 01:10:00,
2013-02-19 20:40:00,43.0,41.0,29.63,East,97,0.0,2.0,94,0.08,,,0.23,weatherlink.com 1.10,2013-02-20 01:40:00,
2013-02-19 20:55:00,43.1,42.0,29.61,ESE,103,0.0,2.0,94,0.04,,,0.23,weatherlink.com 1.10,2013-02-20 01:55:00,
2013-02-19 21:10:00,43.2,42.0,29.59,SE,146,0.0,2.0,94,0.03,,,0.24,weatherlink.com 1.10,2013-02-20 02:10:00,
2013-02-19 21:25:00,43.0,41.0,29.62,SW,217,0.0,1.0,94,0.02,,,0.24,weatherlink.com 1.10,2013-02-20 02:25:00,
2013-02-19 21:40:00,43.1,42.0,29.61,ESE,117,0.0,2.0,94,0.06,,,0.29,weatherlink.com 1.10,2013-02-20 02:40:00,
2013-02-19 21:55:00,43.3,42.0,29.60,SW,232,2.0,2.0,95,0.08,,,0.31,weatherlink.com 1.10,2013-02-20 02:55:00,
2013-02-19 22:10:00,43.3,42.0,29.61,SW,232,0.0,1.0,94,0.09,,,0.33,weatherlink.com 1.10,2013-02-20 03:10:00,
2013-02-19 22:25:00,43.2,42.0,29.59,SSW,203,0.0,2.0,94,0.10,,,0.34,weatherlink.com 1.10,2013-02-20 03:25:00,
2013-02-19 22:40:00,42.8,41.0,29.58,SSW,203,0.0,0.0,94,0.06,,,0.35,weatherlink.com 1.10,2013-02-20 03:40:00,
2013-02-19 22:55:00,42.2,41.0,29.57,SSW,202,0.0,0.0,94,0.05,,,0.36,weatherlink.com 1.10,2013-02-20 03:55:00,
2013-02-19 23:10:00,42.1,41.0,29.57,SSW,203,0.0,0.0,95,0.03,,,0.36,weatherlink.com 1.10,2013-02-20 04:10:00,
2013-02-19 23:25:00,41.8,41.0,29.57,SW,219,1.0,1.0,95,0.02,,,0.36,weatherlink.com 1.10,2013-02-20 04:25:00,
2013-02-19 23:40:00,41.9,41.0,29.57,SE,129,1.0,1.0,95,0.01,,,0.36,weatherlink.com 1.10,2013-02-20 04:40:00,
2013-02-19 23:55:00,41.8,41.0,29.56,WSW,240,1.0,3.0,95,0.00,,,0.36,weatherlink.com 1.10,2013-02-20 04:55:00,